www.pogodaiklimat.ru

ПОГОДА в Ильичёвске

  • Прогноз погоды в Ильичёвске
  • Монитор погоды в Ильичёвске
  • Климат города

АРХИВ ПОГОДЫ в Ильичёвске

Время (UTC), дата Ветер
(напр.,м/с)
 
Видим.   Явления Облачность Т
(С)
Тd
(С)
f
(%)
Тe
(С)
Тes
(С)
Комфортность P
(гПа)
Po
(гПа)
Тmin
(С)
Tmax
(С)
R
(мм)
S
(см)
18 16.05 штиль 0 10 км 8/8 600 м
[Sc]
+17.5 +9.9 61 +18 +18 1017.3 1014.9 +20.0
21 16.05 З 1 10 км ясно +14.2 +8.6 69 +15 +15 1018.3 1015.9
00 17.05 СЗ 2 10 км ясно +12.0 +7.7 75 +11 +11 1018.3 1015.9
03 17.05 З 2 14 км 6/0
[Cc]
+11.3 +7.4 77 +10 +10 1018.5 1016.1
06 17.05 Ю 1 15 км 8/0
[Ci sp]
+17.0 +11.1 68 +18 +25 1018.7 1016.3 +10.9
09 17.05 Ю 5 20 км 8/0
[Ci sp]
+17.3 +13.2 77 +17 +24 1018.0 1015.6
12 17.05 Ю 5 25 км 8/8 600 м
[Sc]
+18.5 +13.2 71 +19 +20 1016.8 1014.4
15 17.05 Ю 4 20 км 5/5 600 м
[Sc]
+18.0 +13.0 73 +18 +19 1016.1 1013.7
18 17.05 З 1 10 км 5/5 600 м
[Sc]
+18.5 +12.6 68 +20 +20 1016.5 1014.1 +20.2
21 17.05 З 2 10 км 8/8 600 м
[Sc]
+18.4 +13.3 72 +19 +19 1017.1 1014.7
00 18.05 СВ 1 10 км ясно +14.8 +10.4 75 +15 +15 1017.2 1014.8
03 18.05 штиль 0 15 км 8/8 600 м
[Sc]
+15.1 +10.2 73 +15 +15 1017.9 1015.5
06 18.05 В 2 28 км 3/0
[]
+16.8 +10.4 66 +17 +23 1019.3 1016.9 +14.7
09 18.05 Ю 1 25 км 6/6 600 м
[Sc]
+16.9 +11.5 70 +18 +26 1019.6 1017.2
12 18.05 Ю 3 25 км 6/5 600 м
[Sc diur, vesp Cc]
+17.8 +12.6 72 +18 +24 1017.9 1015.5
15 18.05 Ю 4 27 км 6/0
[Cs]
+17.4 +12.9 75 +17 +19 1016.4 1014.0
18 18.05 Ю 2 10 км н/о +16.0 +9.7 66 +16 +16 1016.4 1014.0 +18.1
21 18.05 Ю 1 10 км ясно +14.0 +10.7 80 +14 +14 1016.4 1014.0
00 19.05 штиль 0 10 км ясно +12.7 +10.7 88 +12 +12 1016.1 1013.7
03 19.05 Ю 3 6000 м дымка 10/10 300 м
[St]
+14.5 +13.6 94 +14 +14 1015.6 1013.2
06 19.05 Ю 2 8000 м дымка 10/10 300 м
[St]
+17.0 +15.7 92 +17 +17 1016.0 1013.6 +12.6
09 19.05 Ю 2 8000 м дымка 10/10 300 м
[St]
+17.1 +15.6 91 +17 +17 1016.4 1014.0
12 19.05 Ю 3 25 км ясно +19.0 +15.6 81 +21 +33 комфорт 1016.3 1013.9
15 19.05 Ю 4 20 км ясно +17.6 +14.3 81 +17 +20 1015.5 1013.1
18 19.05 штиль 0 10 км 8/8 600 м
[Sc]
+15.3 +12.9 86 +15 +15 1015.5 1013.1 +19.2
21 19.05 штиль 0 10 км 8/8 600 м
[Sc]
+15.3 +14.0 92 +15 +15 1016.3 1013.9
00 20.05 штиль 0 10 км 5/0
[Ci fib]
+14.4 +13.7 96 +14 +14 1015.7 1013.3
03 20.05 З 1 8000 м дымка {туман} ясно +14.7 +13.8 94 +15 +15 1016.0 1013.6
06 20.05 В 2 12 км {туман} ясно +18.1 +15.8 86 +19 +26 1016.9 1014.5 +14.3
09 20.05 В 3 20 км ясно +20.8 +13.5 63 +24 +38 комфорт 1016.8 1014.4
12 20.05 ЮВ 2 26 км ясно +21.6 +15.1 67 +25 +40 комфорт 1016.3 1013.9
15 20.05 ЮВ 2 25 км ясно +21.0 +14.7 67 +25 +29 комфорт 1015.5 1013.1
18 20.05 ЮВ 2 10 км ясно +18.1 +13.5 74 +19 +19 1016.0 1013.6 +23.2
21 20.05 В 2 10 км ясно +17.6 +13.1 75 +18 +18 1016.0 1013.6
00 21.05 СВ 2 10 км ясно +17.8 +13.4 75 +18 +18 1016.1 1013.7
03 21.05 СВ 3 12 км ясно +17.5 +11.7 69 +18 +18 1016.1 1013.7
06 21.05 СВ 4 15 км 3/0
[Ci fib]
+18.9 +12.8 68 +20 +25 1016.5 1014.1 +17.0
09 21.05 СВ 4 20 км 3/0
[Ac und]
+23.1 +13.0 53 +26 +35 жарко 1017.1 1014.7
12 21.05 В 1 20 км 8/0
[Ci sp]
+22.2 +13.2 57 +25 +40 комфорт 1016.9 1014.5
15 21.05 СВ 1 18 км 9/0
[Ci sp]
+25.4 +7.8 33 +26 +29 жарко 1015.9 1013.6
18 21.05 СВ 2 10 км 4/0
[Ac und]
+20.4 +11.5 57 +23 +23 комфорт 1015.7 1013.3 +25.5
21 21.05 штиль 0 10 км ясно +16.7 +10.7 68 +17 +17 1016.9 1014.5
00 22.05 СЗ 1 10 км ясно +14.9 +10.7 76 +15 +15 1017.5 1015.1
03 22.05 СЗ 3 14 км 6/0
[Cc]
+14.9 +12.0 83 +14 +14 1017.3 1014.9
06 22.05 СВ 3 28 км 8/0
[Cs]
+20.4 +12.0 59 +23 +28 комфорт 1017.3 1014.9 +14.6
09 22.05 СВ 3 30 км 4/0
[Ci fib]
+24.5 +11.9 45 +26 +39 жарко 1017.5 1015.2
12 22.05 СВ 2 30 км н/о +26.8 +9.2 33 +27 +27 жарко 1016.5 1014.3
15 22.05 СВ 2 30 км н/о +27.2 +8.2 30 +27 +27 жарко 1015.3 1013.1
18 22.05 Ю 1 10 км ясно +19.8 +15.1 74 +23 +23 комфорт 1015.6 1013.2 +27.6
21 22.05 штиль 0 10 км ясно +18.8 +11.3 62 +19 +19 1015.9 1013.5
00 23.05 СЗ 3 10 км ясно +16.4 +11.2 71 +16 +16 1014.9 1012.5
03 23.05 З 3 22 км 8/0
[Cs]
+17.3 +11.9 71 +17 +17 1014.0 1011.6
06 23.05 СВ 4 25 км ясно +21.1 +12.6 58 +23 +29 комфорт 1013.7 1011.3 +15.8
09 23.05 В 2 27 км ясно +23.0 +14.2 58 +27 +44 душно 1013.7 1011.3
12 23.05 В 1 30 км ясно +24.7 +12.2 46 +26 +44 жарко 1012.3 1010.0
15 23.05 штиль 0 27 км ясно +26.9 +6.8 28 +26 +32 жарко 1011.2 1008.9

 

Местоположение метеостанции Ильичевск (Одесская область, Украина): широта 46.40 долгота 30.70 высота над уровнем моря 52 м.

В архиве по умолчанию представлена погода в Ильичёвске за последнюю неделю. Архивные данные за месяц целиком и за предыдущие месяцы, начиная с января 2011 года, Вы можете получить, выбрав интересующий диапазон дат из раскрывающегося списка и нажав кнопку "Ввод!".

Внимание! Время в таблицах - всемирное. Для получения местного времени необходимо прибавить поправку, которая в Ильичёвске равна 2 ч.

Ветер - указаны скорость ветра в м/с - средняя за 10 мин, порывы в срок и между сроками (в фигурных скобках) и направление, откуда дует ветер: С - северный, СВ - северо-восточный, В - восточный, ЮВ - юго-восточный, Ю - южный, ЮЗ - юго-западный, З - западный, СЗ - северо-западный.
Видимость - горизонтальная дальность видимости в метрах или километрах. При видимости от 1 до 10 км при отсутствии осадков обычно наблюдается дымка, при ухудшении видимости до 1 км и менее - туман. В сухую погоду видимость может ухудшаться дымом, пылью или мглою.
Явления - указаны атмосферные явления, наблюдавшиеся в срок или в последний час перед сроком; фигурными скобками обозначены явления, наблюдавшиеся между сроками (за 1-3 часа до срока); квадратными скобками обозначены град или гололедные отложения с указанием их диаметра в мм.
Облачность - указаны через наклонную черту общая и нижняя облачность в баллах и высота нижней границы облаков в метрах; квадратными скобками обозначены формы облаков: Ci - перистые, Cs - перисто-слоистые, Cc - перисто-кучевые, Ac - высококучевые, As - высокослоистые, Sc - слоисто-кучевые, Ns - слоисто-дождевые, Cu - кучевые, Cb - кучево-дождевые. Подробнее классификацию облаков см. в Атласе облаков (PDF).
T - Температура воздуха - температура, измеренная на высоте 2 м над землей.
Td - Температура точки росы - температура, при понижении до которой содержащийся в воздухе водяной пар достигнет насыщения.
f - Относительная влажность воздуха - влажноcть воздуха, измеренная на высоте 2 м над землей.
Te - Эффективная температура - температура, которую ощущает одетый по сезону человек в тени. Характеристика душности погоды. При расчете учитывается влияние влажности воздуха и скорости ветра на теплоощущения человека.
Tes - Эффективная температура на солнце - температура, которую ощущает человек, с поправкой на солнечный нагрев. Характеристика знойности погоды. Зависит от высоты солнца над горизонтом, облачности и скорости ветра. Ночью, в пасмурную погоду, а также при ветре 12 м/с и более поправка равна нулю.
P - Атмосферное давление - приведенное к уровню моря атмосферное давление.
Po - Атмосферное давление - измеренное на уровне метеостанции атмосферное давление.
Tmin - Минимальная температура - минимум температуры воздуха на высоте 2 м над землей.
Tmax - Максимальная температура - максимум температуры воздуха на высоте 2 м над землей.
R - Количество осадков - Количество выпавших осадков, мм. При наведении курсора мыши на число - период времени, за который выпало указанное количество осадков.
S - Снежный покров - Высота снежного покрова, см. При наведении курсора мыши на число - состояние снежного покрова и степень покрытия местности в баллах.